• în România
  • Lista ţărilor
  • Pe 7 zile
  • Temperatura apei
  • Hartă satelitară
  • Meteo pe hartă
  • Widget-uri
  • user-avatar
    Intrare

    Meteo pe oră la Nam Dinh

    Astăzi, 18 August, Sâmbătă

    Timp Temperatura Precipitaţii Vânt Presiune Umiditate
    00:00 +27°C° 1,8 mm 3 m/s 750 mmHg 93%
    01:00 +27°C° 0 mm 2 m/s 750 mmHg 94%
    02:00 +27°C° 1,3 mm 3 m/s 750 mmHg 94%
    03:00 +27°C° 1,3 mm 3 m/s 750 mmHg 94%
    04:00 +27°C° 1,3 mm 3 m/s 750 mmHg 94%
    05:00 +27°C° 0,5 mm 3 m/s 750 mmHg 94%
    06:00 +27°C° 0,5 mm 3 m/s 750 mmHg 93%
    07:00 +28°C° 0 mm 3 m/s 750 mmHg 93%
    08:00 +29°C° 1,7 mm 3 m/s 750 mmHg 89%
    09:00 +30°C° 1,7 mm 3 m/s 750 mmHg 86%
    10:00 +31°C° 1,7 mm 3 m/s 750 mmHg 82%
    11:00 +31°C° 2,4 mm 3 m/s 750 mmHg 81%
    12:00 +33°C° 2,4 mm 3 m/s 750 mmHg 80%
    13:00 +33°C° 0 mm 3 m/s 750 mmHg 80%
    14:00 +33°C° 1,4 mm 3 m/s 750 mmHg 79%
    15:00 +33°C° 1,4 mm 3 m/s 749 mmHg 79%
    16:00 +33°C° 1,4 mm 3 m/s 749 mmHg 79%
    17:00 +31°C° 0,2 mm 3 m/s 749 mmHg 82%
    18:00 +30°C° 0,2 mm 2 m/s 750 mmHg 85%
    19:00 +29°C° 0,2 mm 2 m/s 750 mmHg 88%
    20:00 +29°C° 0,1 mm 1 m/s 750 mmHg 89%
    21:00 +29°C° 0,1 mm 1 m/s 751 mmHg 89%
    22:00 +28°C° 0,1 mm 1 m/s 751 mmHg 89%
    23:00 +28°C° 0,1 mm 1 m/s 751 mmHg 90%

    Mâine, 19 August, Duminică

    Timp Temperatura Precipitaţii Vânt Presiune Umiditate
    00:00 +28°C° 0,1 mm 1 m/s 751 mmHg 90%
    01:00 +28°C° 0,1 mm 1 m/s 751 mmHg 90%
    02:00 +28°C° 0 mm 1 m/s 751 mmHg 90%
    03:00 +28°C° 0 mm 1 m/s 751 mmHg 90%
    04:00 +27°C° 0 mm 2 m/s 750 mmHg 90%
    05:00 +28°C° 0 mm 2 m/s 751 mmHg 89%
    06:00 +28°C° 0 mm 2 m/s 751 mmHg 87%
    07:00 +29°C° 0 mm 2 m/s 751 mmHg 86%
    08:00 +30°C° 0,4 mm 2 m/s 751 mmHg 80%
    09:00 +32°C° 0,4 mm 2 m/s 751 mmHg 75%
    10:00 +34°C° 0,4 mm 2 m/s 752 mmHg 69%
    11:00 +34°C° 0,4 mm 1 m/s 751 mmHg 66%
    12:00 +35°C° 0,4 mm 1 m/s 751 mmHg 62%
    13:00 +36°C° 0,4 mm 1 m/s 750 mmHg 59%
    14:00 +36°C° 0,1 mm 1 m/s 750 mmHg 61%
    15:00 +36°C° 0,1 mm 2 m/s 749 mmHg 62%
    16:00 +36°C° 0,1 mm 2 m/s 749 mmHg 63%
    17:00 +35°C° 0,5 mm 2 m/s 749 mmHg 71%
    18:00 +32°C° 0,5 mm 2 m/s 750 mmHg 78%
    19:00 +30°C° 0,5 mm 3 m/s 750 mmHg 85%
    20:00 +30°C° 0,1 mm 2 m/s 750 mmHg 86%
    21:00 +30°C° 0,1 mm 2 m/s 751 mmHg 86%
    22:00 +30°C° 0,1 mm 2 m/s 751 mmHg 87%
    23:00 +29°C° 0,2 mm 2 m/s 751 mmHg 87%

    Poimâine, 20 August, Luni

    Timp Temperatura Precipitaţii Vânt Presiune Umiditate
    00:00 +29°C° 0,2 mm 2 m/s 751 mmHg 88%
    01:00 +29°C° 0,2 mm 2 m/s 751 mmHg 88%
    02:00 +29°C° 0 mm 1 m/s 750 mmHg 88%
    03:00 +29°C° 0 mm 1 m/s 750 mmHg 89%
    04:00 +29°C° 0 mm 1 m/s 750 mmHg 89%
    05:00 +29°C° 0 mm 1 m/s 750 mmHg 88%
    06:00 +30°C° 0 mm 1 m/s 750 mmHg 86%
    07:00 +30°C° 0 mm 1 m/s 751 mmHg 85%
    08:00 +32°C° 0 mm 1 m/s 751 mmHg 79%
    09:00 +33°C° 0 mm 1 m/s 751 mmHg 73%
    10:00 +35°C° 0 mm 1 m/s 751 mmHg 67%
    11:00 +35°C° 0,1 mm 1 m/s 751 mmHg 63%
    12:00 +36°C° 0,1 mm 1 m/s 750 mmHg 60%
    13:00 +38°C° 0,1 mm 2 m/s 750 mmHg 57%
    14:00 +38°C° 0,3 mm 2 m/s 749 mmHg 59%
    15:00 +38°C° 0,3 mm 2 m/s 748 mmHg 60%
    16:00 +37°C° 0,3 mm 2 m/s 748 mmHg 62%
    17:00 +36°C° 0,5 mm 2 m/s 748 mmHg 69%
    18:00 +34°C° 0,5 mm 2 m/s 749 mmHg 76%
    19:00 +33°C° 0,5 mm 3 m/s 749 mmHg 83%
    20:00 +31°C° 0,1 mm 3 m/s 750 mmHg 83%
    21:00 +31°C° 0,1 mm 2 m/s 750 mmHg 83%
    22:00 +31°C° 0,1 mm 2 m/s 751 mmHg 83%
    23:00 +31°C° 0,2 mm 2 m/s 750 mmHg 84%

    21 August, Marţi

    Timp Temperatura Precipitaţii Vânt Presiune Umiditate
    00:00 +30°C° 0,2 mm 2 m/s 750 mmHg 85%
    01:00 +30°C° 0,2 mm 2 m/s 749 mmHg 86%
    02:00 +30°C° 0,1 mm 2 m/s 749 mmHg 87%
    03:00 +30°C° 0,1 mm 2 m/s 748 mmHg 88%
    04:00 +29°C° 0,1 mm 1 m/s 748 mmHg 89%
    05:00 +30°C° 0 mm 1 m/s 748 mmHg 87%
    06:00 +30°C° 0 mm 1 m/s 749 mmHg 86%
    07:00 +30°C° 0 mm 1 m/s 749 mmHg 84%
    08:00 +32°C° 0,6 mm 1 m/s 749 mmHg 78%
    09:00 +34°C° 0,6 mm 1 m/s 749 mmHg 72%
    10:00 +35°C° 0,6 mm 1 m/s 749 mmHg 66%
    11:00 +36°C° 0,2 mm 1 m/s 749 mmHg 61%
    12:00 +37°C° 0,2 mm 1 m/s 748 mmHg 57%
    13:00 +39°C° 0,2 mm 1 m/s 748 mmHg 53%
    14:00 +39°C° 0 mm 2 m/s 747 mmHg 54%
    15:00 +38°C° 0 mm 2 m/s 747 mmHg 56%
    16:00 +38°C° 0 mm 2 m/s 746 mmHg 57%
    17:00 +37°C° 0,3 mm 2 m/s 746 mmHg 64%
    18:00 +35°C° 0,3 mm 2 m/s 747 mmHg 71%
    19:00 +32°C° 0,3 mm 2 m/s 747 mmHg 77%
    20:00 +32°C° 0,2 mm 2 m/s 748 mmHg 78%
    21:00 +32°C° 0,2 mm 2 m/s 748 mmHg 79%
    22:00 +31°C° 0,2 mm 2 m/s 749 mmHg 79%
    23:00 +31°C° 0,3 mm 2 m/s 748 mmHg 81%

    22 August, Miercuri

    Timp Temperatura Precipitaţii Vânt Presiune Umiditate
    00:00 +31°C° 0,3 mm 2 m/s 748 mmHg 82%
    01:00 +30°C° 0,3 mm 2 m/s 748 mmHg 83%
    02:00 +30°C° 0 mm 2 m/s 748 mmHg 84%
    03:00 +30°C° 0 mm 2 m/s 747 mmHg 85%
    04:00 +30°C° 0 mm 1 m/s 747 mmHg 86%
    05:00 +30°C° 0 mm 1 m/s 748 mmHg 85%
    06:00 +30°C° 0 mm 1 m/s 748 mmHg 84%
    07:00 +31°C° 0 mm 1 m/s 749 mmHg 83%
    08:00 +32°C° 1,1 mm 1 m/s 749 mmHg 78%
    09:00 +33°C° 1,1 mm 1 m/s 749 mmHg 74%
    10:00 +35°C° 1,1 mm 1 m/s 749 mmHg 69%
    11:00 +35°C° 0,4 mm 1 m/s 749 mmHg 65%
    12:00 +36°C° 0,4 mm 1 m/s 748 mmHg 61%
    13:00 +37°C° 0,4 mm 1 m/s 747 mmHg 57%
    14:00 +37°C° 0 mm 1 m/s 747 mmHg 57%
    15:00 +38°C° 0 mm 2 m/s 747 mmHg 58%
    16:00 +38°C° 0 mm 2 m/s 746 mmHg 58%
    17:00 +36°C° 0,4 mm 2 m/s 747 mmHg 65%
    18:00 +35°C° 0,4 mm 3 m/s 747 mmHg 72%
    19:00 +33°C° 0,4 mm 3 m/s 748 mmHg 79%
    20:00 +33°C° 0,5 mm 3 m/s 748 mmHg 80%
    21:00 +31°C° 0,5 mm 3 m/s 749 mmHg 81%
    22:00 +31°C° 0,5 mm 2 m/s 749 mmHg 82%
    23:00 +31°C° 0,1 mm 2 m/s 749 mmHg 83%

    23 August, Joi

    Timp Temperatura Precipitaţii Vânt Presiune Umiditate
    00:00 +30°C° 0,1 mm 2 m/s 749 mmHg 84%
    01:00 +30°C° 0,1 mm 2 m/s 748 mmHg 85%
    02:00 +30°C° 0 mm 2 m/s 748 mmHg 85%
    03:00 +30°C° 0 mm 2 m/s 748 mmHg 86%
    04:00 +29°C° 0 mm 1 m/s 748 mmHg 86%
    05:00 +30°C° 0 mm 1 m/s 749 mmHg 86%
    06:00 +30°C° 0 mm 1 m/s 749 mmHg 85%
    07:00 +30°C° 0 mm 1 m/s 750 mmHg 85%
    08:00 +32°C° 0,7 mm 2 m/s 750 mmHg 80%
    09:00 +34°C° 0,7 mm 2 m/s 750 mmHg 76%
    10:00 +35°C° 0,7 mm 2 m/s 750 mmHg 71%
    11:00 +35°C° 1,1 mm 2 m/s 750 mmHg 69%
    12:00 +36°C° 1,1 mm 2 m/s 750 mmHg 67%
    13:00 +36°C° 1,1 mm 2 m/s 749 mmHg 65%
    14:00 +36°C° 0 mm 2 m/s 749 mmHg 65%
    15:00 +36°C° 0 mm 2 m/s 749 mmHg 65%
    16:00 +36°C° 0 mm 2 m/s 748 mmHg 65%
    17:00 +34°C° 0,1 mm 1 m/s 749 mmHg 69%
    18:00 +33°C° 0,1 mm 1 m/s 749 mmHg 73%
    19:00 +32°C° 0,1 mm 1 m/s 750 mmHg 77%
    20:00 +31°C° 0,2 mm 1 m/s 750 mmHg 78%
    21:00 +31°C° 0,2 mm 1 m/s 750 mmHg 80%
    22:00 +28°C° 0,2 mm 0 m/s 751 mmHg 81%
    23:00 +30°C° 0 mm 1 m/s 750 mmHg 82%
    Arată mai mult